Regional Weather Roundup
Issued by NWS Cleveland, OH

Home | Current Version | Previous Version | Text Only | Print | Product List | Glossary Off
Versions: 1 2 3 4 5 6 7 8 9 10 11 12 13 14 15 16 17 18 19 20 21 22 23 24 25 26 27 28 29 30 31 32 33 34 35 36 37 38 39 40 41 42 43 44 45 46 47 48 49 50

000
ASUS41 KCLE 270010
RWRCLE
OHIO REGIONAL WEATHER ROUNDUP
NATIONAL WEATHER SERVICE CLEVELAND, OH
800 PM EDT MON JUN 26 2017

NOTE: "FAIR" INDICATES FEW OR NO CLOUDS BELOW 12,000 FEET WITH NO
SIGNIFICANT WEATHER AND/OR OBSTRUCTIONS TO VISIBILITY.

OHZ001>008-015>018-024>027-034-035-043-044-270100-
   NORTHWEST OHIO

CITY           SKY/WX    TMP DP  RH WIND       PRES   REMARKS
DEFIANCE       CLOUDY    58  50  75 SW7       30.02S
FINDLAY        CLOUDY    58  49  72 NW9       30.02S
TOLEDO EXPRESS CLOUDY    61  51  70 SW9       29.99F
TOLEDO EXEC    CLOUDY    62  52  69 SW12      30.00F
LIMA           PTSUNNY   60  48  64 N12       30.05R
$$

OHZ009>014-019>023-028>033-038-089-270100-
   NORTHEAST OHIO

CITY           SKY/WX    TMP DP  RH WIND       PRES   REMARKS
CLE-HOPKINS    CLOUDY    65  49  56 S8        30.02R
CLE-LAKEFRONT  PTCLDY    68  45  43 SW12      29.98S
CUY CO. ARPT   MOCLDY    68  46  45 W10       30.00S
LORAIN-ELYRIA  CLOUDY    61  48  62 S5        30.00F
ASHTABULA      PTCLDY    65  46  50 W8        30.00S
AKRON-CANTON   MOCLDY    65  51  60 SW10      30.02F
WOOSTER        CLOUDY    66  47  50 W7        30.02S
MANSFIELD      CLOUDY    66  46  48 SW14      30.02S
YOUNGSTOWN     TSTM      61  46  57 W13G23    30.03R
$$

OHZ042-051>053-060>062-070>072-077>081-270100-
  SOUTHWEST OHIO

CITY           SKY/WX    TMP DP  RH WIND       PRES   REMARKS
CINC-COVINGTON PTSUNNY   68  49  50 W8        30.08R
CINC-LUNKEN    PTSUNNY   71  49  45 W14       30.06S
HAMILTON       CLOUDY    70  51  51 W7        30.07S
DAYTON         PTSUNNY   69  50  50 W9        30.05F
WRIGHT-PAT AFB MOSUNNY   65  58  76 W5        30.04F
DAYTON GENERAL CLOUDY    70  49  47 W9        30.04F
WILMINGTON     CLOUDY    67  51  56 W7        30.05F
$$

OHZ036-037-039>041-045>050-054>059-063>069-073>076-082>088-270100-
  CENTRAL AND SOUTHEAST OHIO

CITY           SKY/WX    TMP DP  RH WIND       PRES   REMARKS
COLUMBUS       LGT RAIN  64  52  64 NW18      30.04F
OSU AIRPORT    LGT RAIN  60  54  80 SW13      30.05F
BOLTON FIELD   LGT RAIN  61  53  74 NW8       30.06S
RICKENBACK AFB CLOUDY    67  47  48 N12       30.03F
NEWARK         CLOUDY    66  46  48 W7        30.04S
MARION         PTSUNNY   68  46  45 SW13G21   30.02F
LANCASTER      CLOUDY    67  51  56 SW3       30.05S
ZANESVILLE     MOCLDY    68  48  48 SW3       30.04F
NEW PHILLY     NOT AVBL
$$




USA.gov is the U.S. government's official web portal to all federal, state and local government web resources and services.